Temp
15 15 15 15 14 14 14 14 13 13 13 13 13 13 12 12 12 12 12 12 11 11 11 11 11 11 11 11 11 11 11 11 11 11 10 10 10 10 10 10 10 10 10 9 9 8 7 7 7 7 6 6 6 6 6 6 6 6 5 5 5 5 5 5 6 6 6 6 6
15 14 14 14 14 14 13 13 13 13 13 13 13 12 12 12 12 12 11 11 11 11 10 10 10 10 10 10 10 10 10 10 10 10 10 10 9 9 9 9 9 9 9 9 8 7 6 6 6 6 6 5 5 5 5 5 5 5 5 5 5 5 5 5 5 6 6 6 6
14 14 14 14 13 13 13 12 12 12 12 12 12 12 12 12 12 11 11 11 10 10 10 10 9 9 9 10 9 9 9 9 9 9 8 8 8 8 7 8 8 8 8 7 7 6 6 6 5 5 5 5 5 4 4 5 5 5 5 5 5 5 4 5 5 5 6 6 6
14 13 13 13 13 13 12 12 12 12 12 12 12 12 12 12 11 11 11 10 10 10 9 9 9 9 9 9 9 9 9 9 8 8 7 7 7 7 7 7 7 7 7 6 6 6 5 5 5 5 5 5 4 4 4 4 5 5 5 5 5 5 5 5 5 5 5 5 5
13 13 13 12 12 12 12 12 12 12 12 12 12 12 12 11 11 11 10 10 9 9 9 9 8 8 8 8 8 8 8 8 7 7 7 6 6 6 7 7 7 6 6 6 6 5 5 5 5 5 5 5 4 4 5 5 5 5 5 5 5 5 5 5 5 4 4 4 3
12 12 12 12 12 12 12 12 12 12 12 11 12 12 11 11 11 10 10 10 9 9 9 9 8 8 8 8 8 7 7 7 6 6 6 6 6 6 6 6 6 6 6 5 5 5 5 5 4 4 4 4 4 4 4 5 5 5 5 5 5 5 5 5 5 4 4 3 3
12 12 12 12 12 11 11 11 11 11 11 11 11 11 11 11 10 10 10 9 9 8 8 8 8 7 7 7 7 7 6 6 6 6 6 6 6 6 5 5 5 5 5 5 5 5 4 4 4 4 4 4 4 4 4 4 4 4 4 4 5 5 4 4 4 4 4 4 4
12 11 11 11 11 11 11 11 11 11 11 11 11 11 10 10 9 9 9 9 8 8 8 7 7 7 6 6 6 6 6 6 6 6 6 6 5 5 5 5 4 4 4 4 4 4 4 4 4 3 3 3 3 3 4 4 4 4 3 3 3 3 3 3 3 3 3 3 4
11 11 11 11 11 11 11 11 11 10 10 10 10 10 9 9 9 9 8 8 8 7 7 7 6 6 6 6 6 6 5 5 5 5 5 5 5 5 4 4 4 4 4 4 4 4 4 3 3 3 3 3 2 2 2 3 3 3 3 2 1 1 1 1 1 1 2 2 2
11 11 10 10 10 10 10 10 10 10 10 9 9 9 8 8 8 8 7 7 7 7 6 6 5 5 5 5 5 5 5 5 5 5 5 4 4 4 4 4 3 3 3 3 3 3 3 3 3 2 2 2 2 2 2 2 2 2 1 1 1 1 1 0 0 0 0 0 1
10 10 10 10 10 10 10 10 9 9 9 8 8 8 8 7 7 6 6 6 6 6 5 5 5 5 5 5 5 5 5 5 4 4 4 4 4 4 3 3 3 3 3 3 3 3 2 2 2 2 2 1 1 1 1 1 1 1 0 0 0 0 0 0 0 -0 -0 -0 -0
10 10 10 9 9 9 9 9 8 8 8 7 7 7 7 6 6 6 6 6 5 5 5 5 4 4 4 4 4 4 4 4 4 4 4 4 3 3 3 3 3 3 2 2 2 2 2 2 2 1 1 1 1 1 1 0 0 -0 -0 -0 -0 -0 -0 -1 -1 -1 -1 -1 -1
9 9 9 9 9 8 8 8 7 7 7 7 6 6 6 6 6 6 6 5 5 5 4 4 4 4 4 3 3 3 4 4 4 3 3 3 3 3 3 2 2 2 2 2 2 2 2 1 1 1 1 1 1 1 0 0 -0 -1 -1 -1 -1 -1 -1 -1 -1 -1 -1 -1 -1
9 9 8 8 8 7 7 7 7 6 6 6 6 6 6 6 6 6 5 5 5 4 4 4 3 3 3 3 3 3 3 3 3 3 3 3 3 2 2 2 2 2 2 1 1 1 1 1 1 1 1 1 1 1 1 0 -0 -0 -1 -1 -1 -1 -1 -1 -1 -1 -1 -1 -1
8 8 8 7 7 7 6 6 6 6 6 6 5 5 5 5 5 5 5 5 4 4 4 3 3 3 3 2 2 2 3 3 3 3 2 2 2 2 2 2 2 1 1 1 1 1 1 1 1 1 1 1 1 1 1 0 0 -0 -1 -1 -1 -1 -1 -1 -1 -1 -1 -1 -1
8 7 7 7 7 6 6 6 5 5 5 5 5 5 5 5 5 5 4 4 4 4 3 3 3 3 3 3 3 3 3 2 2 2 2 2 2 2 2 2 2 1 1 1 1 1 1 1 1 1 1 1 0 0 0 0 -0 -0 -0 -1 -1 -1 -1 -1 -1 -1 -1 -1 -1
7 7 6 6 6 6 6 6 5 5 5 5 5 5 5 4 4 4 4 4 4 3 3 3 3 3 3 3 3 2 2 2 2 2 2 2 2 2 2 2 1 1 1 1 1 1 1 1 1 1 0 0 0 -0 -0 -0 -0 -0 -0 -0 -0 -1 -1 -1 -1 -1 -1 -1 -1
6 6 6 6 6 6 6 5 5 5 5 4 4 4 4 4 4 4 3 3 3 3 3 3 3 3 2 2 2 2 2 2 2 2 2 1 1 1 1 1 1 1 1 1 1 1 1 1 1 0 0 0 -0 -0 -1 -1 -1 -1 -0 -0 -0 -0 -1 -1 -1 -1 -1 -1 -1
6 6 6 6 6 6 5 5 5 5 4 4 4 4 4 3 3 3 3 3 3 3 3 2 2 2 2 2 2 1 1 1 1 1 1 1 1 1 1 1 1 1 1 1 1 1 1 0 0 0 0 -0 -0 -1 -1 -1 -1 -1 -1 -0 -0 -0 -0 -1 -1 -1 -1 -1 -1
5 5 5 5 5 5 5 5 5 4 4 4 4 3 3 3 3 3 3 2 2 2 2 2 2 2 2 1 1 1 1 1 1 1 1 1 1 1 1 1 1 1 1 1 1 1 1 0 0 0 -0 -0 -0 -1 -1 -1 -1 -1 -1 -1 -1 -1 -1 -1 -1 -1 -1 -1 -1
5 5 5 5 5 5 5 5 4 4 4 3 3 3 3 3 2 2 2 2 2 2 2 2 2 2 1 1 1 1 1 1 1 1 1 1 1 1 1 1 1 1 1 1 1 1 1 0 0 -0 -0 -0 -1 -1 -1 -1 -1 -1 -1 -1 -1 -1 -1 -1 -1 -1 -1 -1 -1
5 5 5 5 4 4 4 4 4 4 3 3 3 2 2 2 2 2 2 2 2 2 2 2 1 1 1 1 1 1 1 1 1 1 1 1 1 1 1 1 1 1 1 1 1 1 1 0 -0 -0 -0 -0 -1 -1 -1 -1 -1 -1 -1 -1 -1 -1 -1 -1 -1 -1 -1 -1 -1
5 5 4 4 4 4 4 4 3 3 3 3 2 2 2 2 2 2 2 2 2 2 1 1 1 1 1 1 1 1 1 1 1 1 1 1 1 1 1 1 1 1 2 2 2 1 1 0 -0 -0 -0 -1 -1 -1 -1 -1 -1 -1 -1 -1 -1 -1 -1 -1 -1 -1 -1 -1 -1
5 4 4 4 4 4 3 3 3 2 2 2 2 2 2 2 2 2 2 1 1 1 1 1 1 1 1 1 1 1 1 1 1 1 1 1 1 1 1 1 1 1 1 1 2 1 1 1 0 -0 -1 -1 -0 -0 -0 -0 -1 -1 -1 -1 -1 -1 -1 -1 -1 -1 -1 -1 -1
4 4 4 3 3 3 3 2 2 2 2 2 2 2 2 2 2 2 1 1 1 1 1 1 1 1 1 1 1 1 1 1 1 1 1 1 1 1 1 1 1 1 1 1 1 1 1 1 0 -0 -0 -1 -0 -0 -0 -1 -1 -1 -1 -1 -1 -1 -1 -1 -1 -2 -2 -2 -2
4 4 3 3 3 3 3 2 2 2 2 2 2 2 2 2 2 1 1 1 1 1 1 1 1 1 1 1 1 1 1 1 1 1 1 1 1 1 1 1 1 1 1 1 1 1 1 1 0 0 -0 -0 -0 -0 -0 -1 -1 -1 -1 -1 -1 -1 -1 -1 -2 -2 -2 -2 -2
4 3 3 3 3 3 2 2 2 2 2 2 2 2 2 1 1 1 1 1 1 1 1 1 1 1 1 1 1 1 1 1 1 1 1 1 1 1 1 1 1 1 1 1 1 1 1 0 0 0 -0 -0 -0 -0 -1 -1 -1 -1 -1 -1 -1 -1 -2 -2 -2 -2 -2 -2 -2
3 3 3 3 3 2 2 2 2 2 2 2 2 1 1 1 1 1 1 1 1 1 1 1 1 1 1 1 1 1 1 1 1 1 1 1 1 1 1 1 1 1 1 1 1 1 0 0 0 -0 -0 -0 -1 -1 -1 -1 -1 -1 -1 -2 -2 -2 -2 -2 -2 -2 -2 -2 -2
3 3 3 3 2 2 2 2 2 2 2 2 2 1 1 1 1 1 1 1 1 1 1 1 1 1 1 1 1 1 1 1 1 1 1 1 1 1 1 1 1 1 1 1 0 0 0 -0 -0 -0 -1 -1 -1 -1 -1 -1 -1 -2 -2 -2 -2 -2 -2 -2 -2 -2 -2 -2 -2
3 3 3 3 2 2 2 2 2 2 2 2 2 2 2 1 1 1 1 1 1 1 1 1 1 2 2 2 1 1 1 1 1 1 1 1 1 1 1 1 1 1 1 0 0 0 -0 -0 -1 -1 -1 -1 -1 -1 -1 -2 -2 -2 -2 -2 -2 -2 -2 -2 -2 -2 -2 -2 -2
3 3 3 3 2 2 2 2 2 2 2 2 2 2 2 2 1 1 1 1 1 1 1 1 1 1 1 1 1 1 1 1 1 1 1 1 1 1 1 1 1 1 0 0 0 -0 -0 -1 -1 -1 -1 -1 -2 -2 -2 -2 -2 -2 -2 -3 -3 -3 -3 -3 -3 -3 -3 -3 -3
3 3 3 2 2 2 2 2 2 2 2 2 2 2 2 2 2 2 2 1 1 1 1 1 1 1 1 1 1 1 1 1 1 1 1 1 1 1 1 0 0 0 0 0 -0 -0 -1 -1 -1 -1 -1 -2 -2 -2 -2 -2 -2 -3 -3 -3 -3 -3 -3 -4 -4 -4 -4 -4 -4
3 3 3 2 2 2 2 2 2 2 2 2 2 2 2 2 2 2 2 2 2 1 1 1 1 1 1 1 1 1 1 1 1 1 1 1 0 0 0 0 0 0 0 -0 -0 -1 -1 -1 -1 -1 -1 -2 -2 -2 -2 -3 -3 -3 -3 -3 -4 -4 -4 -4 -4 -4 -4 -4 -4
3 3 3 2 2 2 2 2 2 2 2 2 2 2 2 2 2 2 2 2 2 2 1 1 1 1 1 1 1 1 1 1 1 1 0 0 0 0 0 0 -0 -0 -0 -0 -1 -1 -1 -1 -1 -1 -2 -2 -2 -2 -3 -3 -3 -3 -4 -4 -4 -4 -4 -4 -5 -5 -5 -5 -5
3 3 2 2 2 2 2 2 2 2 2 2 2 2 2 2 2 2 2 1 1 1 2 2 2 2 2 2 1 1 1 1 1 0 0 0 0 0 -0 -0 -0 -1 -1 -1 -1 -1 -1 -1 -1 -2 -2 -2 -3 -3 -3 -3 -4 -4 -4 -4 -4 -4 -4 -5 -5 -5 -5 -5 -5
3 3 2 2 2 2 2 2 2 2 2 2 2 2 2 2 2 2 1 1 1 1 1 1 2 2 2 2 1 1 1 1 0 0 0 0 0 -0 -0 -0 -1 -1 -1 -1 -1 -2 -2 -2 -2 -2 -2 -3 -3 -3 -4 -4 -4 -4 -4 -4 -4 -5 -5 -5 -5 -5 -5 -5 -5
3 3 2 2 2 2 2 2 2 2 2 2 2 2 2 2 2 2 1 1 1 1 1 1 1 1 1 1 1 1 1 0 0 0 0 0 -0 -0 -1 -1 -1 -1 -1 -2 -2 -2 -2 -2 -2 -3 -3 -3 -4 -4 -4 -4 -4 -4 -4 -5 -5 -5 -5 -5 -5 -5 -5 -5 -5
3 3 2 2 2 2 2 2 2 2 2 2 2 2 2 2 2 1 1 1 1 1 1 1 1 1 1 1 1 1 1 0 0 0 -0 -0 -0 -1 -1 -1 -1 -1 -2 -2 -2 -2 -2 -2 -2 -3 -3 -4 -4 -4 -4 -4 -4 -4 -5 -5 -5 -5 -5 -5 -5 -5 -6 -6 -6
3 3 2 2 2 2 2 2 2 2 2 2 2 2 2 2 2 1 1 1 1 1 1 1 1 1 1 1 1 1 1 0 0 -0 -0 -0 -0 -1 -1 -1 -2 -2 -2 -2 -2 -2 -2 -2 -3 -3 -3 -4 -4 -4 -4 -4 -4 -5 -5 -5 -5 -5 -5 -6 -6 -6 -6 -6 -6
3 2 2 2 2 2 2 2 2 2 2 2 2 2 2 2 2 2 2 1 1 1 1 1 1 1 1 1 1 1 0 0 0 -0 -0 -0 -1 -1 -1 -2 -2 -2 -2 -2 -3 -3 -3 -3 -3 -3 -4 -4 -4 -4 -5 -5 -5 -5 -5 -5 -6 -6 -6 -6 -6 -6 -6 -6 -6
2 2 2 2 2 2 2 2 2 2 2 2 2 2 2 2 2 2 2 2 1 1 1 1 1 1 1 1 1 0 0 0 0 -0 -0 -1 -1 -1 -2 -2 -2 -2 -3 -3 -3 -3 -3 -4 -4 -4 -4 -4 -4 -5 -5 -5 -5 -5 -6 -6 -6 -6 -7 -7 -7 -7 -7 -7 -7
Height
829 828 828 827 827 826 825 824 824 823 822 821 820 819 818 816 815 813 812 811 809 808 807 805 804 803 801 799 798 797 795 794 793 792 791 789 788 787 786 785 784 783 783 781 781 781 781 781 782 783 783 783 783 783 781 779 777 775 773 771 770 771 771 771 769 768 767 766 766
829 828 828 827 826 825 825 824 823 822 821 820 819 818 817 815 814 812 811 810 809 807 806 804 803 802 800 798 797 796 795 793 793 791 790 789 788 787 786 785 784 783 782 782 781 782 783 783 783 783 783 783 783 783 781 780 778 776 773 772 771 770 771 770 768 767 766 765 764
829 828 828 827 826 825 824 824 823 822 821 820 819 818 816 815 813 812 811 810 808 807 805 804 803 801 799 798 797 795 794 793 792 791 790 789 788 787 786 785 785 784 783 783 783 783 783 783 782 782 783 783 783 783 783 781 779 777 774 772 770 769 769 768 767 766 764 763 762
829 828 828 827 826 826 825 824 823 822 821 820 818 817 816 815 813 812 811 809 808 806 805 804 803 801 799 798 797 795 794 793 792 792 791 789 788 788 787 786 786 785 785 784 784 784 783 783 782 782 782 782 782 782 782 780 779 777 774 771 768 767 766 766 765 764 763 762 761
829 829 828 828 827 826 825 824 823 822 821 820 818 817 816 815 813 812 811 809 808 807 805 804 803 801 800 798 797 795 794 793 792 792 791 790 789 788 788 787 786 785 785 785 785 784 783 783 782 781 781 780 781 781 780 779 778 776 773 770 767 766 764 764 763 763 762 761 760
830 829 828 828 827 826 825 824 823 822 821 820 818 818 816 815 813 812 811 809 808 807 806 804 803 801 800 798 797 796 795 794 793 792 791 790 790 789 789 788 787 786 785 785 785 785 784 783 782 781 780 779 779 779 779 778 777 775 773 770 768 766 764 763 762 761 761 760 759
830 829 828 828 827 826 825 824 823 822 821 820 818 818 817 815 814 813 811 810 808 807 806 805 803 802 800 799 798 796 796 795 794 793 792 791 790 790 789 789 788 787 786 785 784 784 783 782 782 781 780 779 778 778 777 777 776 775 774 772 770 768 766 764 763 761 760 759 758
830 829 828 827 826 825 824 823 823 822 821 820 819 818 817 816 814 813 812 810 809 808 807 806 804 803 801 800 798 798 797 796 795 794 793 792 791 790 790 790 789 788 787 785 783 782 782 781 781 781 780 779 778 778 776 776 775 774 773 773 772 770 769 767 765 763 762 760 759
829 829 828 827 826 825 824 823 823 822 821 820 820 819 818 816 815 813 812 811 811 809 808 806 805 803 802 801 800 799 798 797 796 795 794 793 792 791 790 790 789 789 787 785 783 782 781 780 780 781 780 780 779 778 777 776 775 773 773 773 772 771 769 768 766 763 762 761 760
830 829 828 827 826 825 824 823 823 823 822 821 820 819 818 817 816 815 814 813 812 810 808 807 806 805 803 802 801 800 799 798 797 796 795 794 793 792 791 790 789 788 787 786 784 782 781 780 780 781 780 780 780 779 778 777 775 774 773 773 772 771 770 768 767 765 763 762 760
830 829 828 827 826 825 825 824 823 823 822 821 821 820 819 818 817 816 815 814 813 811 810 808 807 806 805 803 802 801 800 799 798 797 796 795 794 793 792 790 789 788 787 786 784 783 782 781 781 781 781 780 780 779 778 778 777 775 774 773 773 772 771 769 768 767 766 764 763
830 829 828 828 827 826 825 824 824 823 823 822 821 821 820 819 818 817 816 814 813 812 811 810 808 807 806 805 803 802 801 800 799 798 796 795 794 793 792 791 790 789 788 786 785 784 783 782 782 782 781 781 780 780 779 778 778 777 776 775 773 773 772 771 770 769 768 766 765
831 830 829 828 827 826 825 825 824 824 823 823 822 821 821 820 818 817 816 815 814 813 812 811 810 808 807 806 804 803 802 800 799 798 797 796 794 793 792 791 790 789 788 787 786 785 783 783 782 782 782 781 781 780 779 779 778 778 777 776 775 774 773 772 771 770 768 767 766
831 830 830 829 828 827 826 826 825 824 824 823 822 822 820 819 818 817 816 815 814 813 812 811 810 808 807 806 805 803 802 800 799 798 797 795 794 793 792 791 790 789 788 787 786 785 784 783 783 783 782 782 781 781 780 779 779 778 778 777 776 775 774 773 772 770 769 768 766
832 831 830 829 828 828 827 826 826 825 824 823 823 822 820 819 818 817 816 815 813 813 811 810 809 808 806 805 804 803 801 800 799 798 796 795 794 793 792 791 790 789 788 788 787 786 785 785 784 783 783 782 782 782 781 780 779 778 778 778 777 776 775 773 772 771 770 768 767
832 832 831 830 829 828 827 827 826 825 824 823 823 822 820 819 818 816 815 814 813 812 811 809 808 807 805 804 803 802 801 799 798 797 796 795 794 793 792 791 790 789 788 788 787 787 786 785 784 784 783 783 783 783 782 781 780 779 778 778 777 776 775 774 773 772 770 769 768
833 832 832 830 829 828 828 827 826 826 825 824 823 822 820 819 818 816 815 814 813 812 810 809 808 806 805 803 803 802 801 799 798 797 796 795 794 793 793 792 791 790 789 788 788 787 786 786 785 784 784 784 784 783 783 782 781 781 780 779 778 777 776 775 774 773 771 770 768
833 833 832 831 829 829 828 828 827 826 825 824 823 822 820 819 818 817 815 814 813 812 810 809 808 806 805 804 803 802 801 800 799 798 797 796 795 794 793 793 792 790 789 788 788 787 786 786 785 785 785 785 784 784 783 783 782 782 781 780 779 778 777 776 774 773 772 770 768
833 833 832 831 830 829 829 828 827 826 825 824 823 822 821 819 818 817 815 814 813 812 810 809 808 806 805 804 803 802 801 800 799 798 798 797 796 795 794 793 792 791 790 788 788 787 786 786 785 785 785 785 785 784 784 783 783 782 781 780 778 778 776 775 774 773 771 769 767
833 833 832 831 830 830 829 828 827 826 825 824 823 822 820 819 818 817 815 814 813 812 810 809 808 807 805 804 803 803 801 801 800 799 798 797 796 795 794 793 792 791 790 788 787 786 786 785 785 786 786 785 785 784 784 783 782 781 780 779 778 777 775 774 772 771 769 767 766
833 833 832 831 830 830 829 828 827 826 825 824 823 822 820 819 818 817 815 814 813 812 810 809 808 807 805 804 803 803 802 801 800 799 798 798 797 796 794 793 792 791 790 788 787 786 786 785 785 785 785 785 784 784 783 782 781 780 778 777 776 775 773 772 770 768 767 765 764
833 833 832 831 830 829 829 828 827 826 825 823 823 821 820 819 818 817 815 814 813 812 810 809 808 807 806 805 804 803 802 801 800 799 798 797 796 795 794 793 792 791 789 788 787 787 786 785 785 785 784 784 783 783 782 781 779 778 777 775 774 773 771 770 768 767 766 765 764
833 832 831 830 830 829 828 827 826 825 824 823 822 821 820 818 818 816 815 814 813 812 810 809 808 807 806 805 804 803 802 801 800 799 798 797 796 794 793 793 791 790 789 788 787 787 786 785 785 784 784 783 783 782 781 780 778 777 775 774 773 771 770 769 768 767 766 765 764
833 832 831 830 829 828 827 826 825 824 823 823 821 820 819 818 817 816 815 813 812 811 810 809 808 807 806 805 804 803 802 801 799 798 797 796 795 794 793 792 791 790 789 788 788 787 786 785 784 784 783 783 782 781 780 779 778 776 775 773 772 771 770 769 768 767 766 766 765
833 831 830 829 828 828 827 826 825 824 823 822 821 820 819 818 816 815 814 813 812 811 809 808 808 807 805 804 803 802 801 800 799 798 797 796 795 794 793 792 791 790 789 788 787 787 786 785 784 783 783 782 782 781 780 779 778 776 775 774 773 771 770 769 768 768 767 767 766
832 831 830 829 828 827 826 825 824 823 823 822 820 819 818 817 816 815 813 812 811 810 809 808 807 806 805 804 803 802 801 799 798 798 797 795 794 793 792 791 790 790 789 788 787 786 785 785 784 783 783 782 781 780 779 778 777 776 775 774 773 772 771 770 769 768 768 767 767
831 830 829 828 827 826 826 825 824 823 822 821 820 819 818 817 816 814 813 812 811 809 808 807 806 805 804 803 802 801 800 799 798 797 796 795 794 793 792 791 790 789 788 788 787 786 785 784 783 783 782 781 781 780 779 778 777 776 775 774 773 772 771 770 770 769 768 768 767
831 830 829 828 827 826 825 824 823 823 822 821 819 818 818 816 815 814 813 812 810 809 808 807 806 805 804 803 802 801 800 799 798 797 796 794 793 793 792 791 790 789 788 787 786 786 785 784 783 783 782 781 780 779 778 778 777 776 775 774 773 773 772 771 770 769 768 768 767
830 829 828 827 826 826 825 824 823 822 821 820 819 818 817 816 815 813 812 811 810 809 808 806 805 804 803 802 801 800 799 798 797 796 795 794 793 792 791 790 789 788 788 787 786 785 784 783 783 782 782 781 780 779 778 777 776 775 774 774 773 773 772 771 770 770 769 768 767
830 829 828 827 826 825 824 824 823 822 821 820 819 818 816 815 814 813 812 811 809 808 807 806 805 804 803 802 801 800 799 798 797 796 795 794 793 792 791 790 789 788 787 786 786 785 784 783 783 782 781 780 779 779 778 777 776 775 774 773 773 772 772 771 770 769 769 768 767
829 828 827 827 826 825 824 823 823 822 820 819 818 817 816 815 813 813 811 810 809 808 807 806 805 803 803 801 800 799 798 798 797 796 795 794 793 792 791 790 788 788 787 786 785 784 783 783 782 781 780 780 779 778 777 777 776 775 774 773 772 772 771 771 770 769 768 768 767
828 828 827 826 825 825 824 823 822 821 820 819 818 817 816 814 813 812 811 810 808 807 806 805 804 803 802 801 800 799 798 797 796 795 794 793 793 792 791 789 788 787 786 786 785 784 783 782 781 780 779 779 778 778 777 776 776 775 774 773 772 772 771 770 770 769 768 768 767
828 827 826 826 825 824 823 822 822 821 820 819 818 817 815 814 813 812 811 809 808 807 806 804 803 802 801 800 799 798 798 797 795 794 794 793 792 791 790 789 788 787 786 785 784 783 783 782 781 780 779 778 778 777 776 776 775 775 774 773 772 772 771 770 769 769 768 767 767
827 827 826 825 824 823 823 822 821 820 819 818 817 816 815 813 812 811 810 809 808 806 805 804 803 802 801 800 799 798 797 796 795 794 793 792 791 790 789 788 787 786 785 785 784 783 783 782 780 779 778 778 777 777 776 776 775 775 774 773 772 771 771 770 769 768 768 767 766
827 826 825 824 823 823 822 821 820 819 818 817 816 815 814 813 812 811 809 808 807 806 805 803 803 801 800 799 798 797 796 795 794 793 792 791 790 789 788 787 787 786 785 784 784 783 782 781 780 779 778 778 777 777 776 776 775 775 774 773 772 771 770 770 769 768 768 767 766
826 825 824 823 823 822 821 820 819 818 818 817 815 814 813 812 811 810 809 808 806 805 804 803 802 801 799 798 798 797 796 795 794 793 792 791 790 789 788 787 786 785 785 784 783 783 782 781 780 779 778 778 777 777 776 776 775 774 773 772 772 771 770 769 768 768 767 766 765
825 824 823 823 822 821 821 820 819 818 817 816 815 814 813 812 811 809 808 807 806 804 803 802 801 800 799 798 797 796 795 794 793 793 792 791 789 788 787 787 786 785 784 783 783 782 781 780 780 779 778 777 777 776 776 775 774 773 773 772 771 770 769 768 768 767 766 765 764
824 824 823 822 821 821 820 819 818 817 816 815 814 813 812 811 810 809 808 807 805 804 803 802 801 799 798 798 797 796 795 794 793 792 791 790 789 788 787 786 785 784 784 783 782 782 781 780 779 779 778 777 776 776 775 774 773 773 772 771 770 769 768 768 767 766 765 764 763
823 823 822 822 821 820 819 818 817 816 815 814 813 813 811 810 809 808 807 806 805 804 803 801 800 799 798 797 796 795 794 793 793 792 791 790 789 788 787 786 785 784 783 783 782 781 780 779 779 778 778 776 776 775 774 773 773 772 771 770 769 768 767 767 766 765 764 763 763
823 822 822 821 820 819 818 818 817 816 815 814 813 812 811 810 809 808 807 806 805 803 802 801 800 799 798 797 796 795 794 793 792 791 791 790 789 788 787 786 785 784 783 782 781 781 780 779 778 778 777 776 775 774 774 773 772 771 770 769 768 767 766 765 764 764 763 762 761
822 821 821 820 819 818 818 817 816 815 814 813 812 811 810 809 808 807 806 805 804 803 802 801 800 799 798 797 796 795 794 793 792 791 790 789 789 788 787 786 785 784 783 782 781 781 780 779 778 778 777 776 775 774 773 772 771 770 769 768 767 766 765 764 763 762 761 761 760
Wind_Speed
27 27 27 27 28 28 27 27 28 29 29 29 28 29 29 29 28 27 26 25 23 22 22 22 21 21 22 23 24 25 26 26 26 25 25 25 24 24 23 21 21 21 22 23 23 23 23 22 22 22 22 22 23 23 23 22 22 22 22 21 22 24 26 27 27 27 26 26 26
27 27 27 28 29 29 29 29 30 31 31 31 30 31 31 31 29 27 26 24 23 23 23 23 22 21 22 23 24 24 24 24 24 24 23 23 22 22 21 20 20 20 21 22 22 22 20 18 17 18 19 21 23 25 26 26 26 26 26 25 25 25 25 25 24 23 22 22 22
28 28 28 29 30 30 30 30 31 32 32 32 32 33 33 32 30 27 26 24 24 24 23 23 22 22 22 23 22 22 22 22 22 22 21 20 20 20 20 20 20 20 20 20 20 19 17 16 18 20 22 25 27 28 30 31 31 30 29 28 26 24 23 23 22 19 17 15 14
28 29 29 30 31 31 31 31 32 33 33 33 34 35 34 32 29 27 25 24 23 23 22 22 22 22 22 21 21 21 21 21 21 20 19 19 20 20 21 21 20 19 19 19 19 18 18 19 21 22 22 24 26 27 29 30 32 32 30 28 25 22 20 20 20 18 14 11 8
29 29 30 30 31 32 32 33 33 34 34 34 34 35 33 30 27 25 23 22 21 21 21 21 21 21 21 21 20 20 20 20 20 19 19 20 20 21 21 21 21 21 21 20 19 20 21 22 21 21 20 20 21 22 24 26 29 30 30 27 24 21 20 19 18 16 13 10 10
29 29 30 31 32 33 34 34 34 34 34 34 34 34 32 28 24 22 21 21 20 20 20 21 21 21 21 20 20 20 20 20 20 20 20 20 21 21 22 22 22 22 22 21 21 21 22 22 20 19 18 17 16 17 19 22 25 27 28 26 22 19 18 16 14 13 12 11 12
29 30 31 32 33 34 35 35 35 35 34 33 33 33 30 26 23 21 21 21 20 20 20 21 21 20 20 19 19 19 19 20 20 20 20 20 21 21 22 22 23 22 21 20 20 21 21 20 18 17 15 15 14 15 17 18 21 23 24 23 20 16 13 12 11 10 10 9 10
30 31 32 33 34 34 34 35 34 34 33 33 32 31 28 24 22 22 22 21 20 20 20 20 20 20 19 19 19 19 19 19 19 20 20 21 21 22 22 22 22 21 20 19 19 19 18 17 15 15 15 15 15 16 16 17 17 17 19 20 20 18 15 14 13 12 10 8 8
30 32 33 33 33 34 34 34 33 33 32 32 31 29 26 24 24 23 22 21 19 19 20 21 21 20 18 18 18 18 19 19 20 20 21 22 22 22 21 21 21 21 20 20 19 18 16 15 14 14 15 16 16 16 16 15 15 14 14 16 18 19 20 19 19 18 17 15 14
31 31 32 32 32 32 32 32 32 31 31 31 29 27 26 25 24 23 22 21 20 21 22 23 22 20 18 17 17 18 19 20 20 21 22 22 22 21 21 21 21 21 20 20 19 17 16 14 14 14 15 16 16 16 17 16 16 15 16 16 17 18 20 21 22 22 21 19 18
30 31 31 31 31 31 31 31 30 29 29 29 28 27 26 25 25 24 24 23 24 25 26 25 23 21 18 17 17 18 19 20 21 22 22 22 22 21 21 20 20 20 19 18 17 16 15 14 14 15 15 15 16 17 17 18 18 19 19 19 19 20 21 22 22 23 22 21 20
29 29 30 30 30 30 30 30 28 28 28 28 27 26 26 26 26 26 26 27 28 28 28 26 25 23 21 19 18 19 20 21 22 22 22 21 21 21 20 20 19 18 18 17 16 16 15 15 15 15 15 16 16 17 18 19 19 20 20 20 20 20 20 21 21 21 21 21 20
28 29 29 29 30 30 29 28 26 26 27 27 26 26 26 26 27 27 27 28 28 28 28 27 26 25 23 21 20 20 21 20 20 20 20 19 19 19 19 18 17 17 16 16 16 16 16 15 15 16 16 17 17 18 18 19 20 20 20 19 19 19 18 18 19 19 19 19 19
27 28 28 29 29 29 28 27 25 25 26 26 26 26 27 27 28 28 27 27 27 28 28 28 28 26 24 22 21 20 20 19 18 18 17 17 16 16 16 16 16 16 16 16 16 16 16 16 16 16 16 17 17 18 18 18 19 19 19 18 18 17 17 16 16 17 17 18 18
27 28 28 29 29 28 27 25 24 24 25 26 26 27 27 28 28 27 27 26 26 27 27 28 27 26 24 21 20 19 18 17 16 15 14 14 14 14 14 15 15 15 16 16 16 16 16 16 16 16 16 16 17 17 18 18 18 18 17 17 16 16 16 16 16 16 16 17 17
27 27 28 28 28 28 27 26 24 24 25 26 26 27 27 27 26 26 25 25 25 26 26 26 25 25 23 21 19 18 17 15 14 13 12 13 13 13 14 14 15 15 15 15 15 15 15 15 15 15 15 15 15 16 16 16 17 17 17 16 16 16 16 16 16 16 16 17 17
26 26 27 27 28 28 27 26 25 25 25 26 26 26 25 25 24 23 23 23 24 25 25 24 23 22 21 19 18 16 15 14 12 12 12 12 13 13 14 14 15 15 15 14 14 14 14 14 14 14 14 13 13 14 14 15 15 15 16 16 16 16 16 16 17 16 16 17 17
26 26 26 27 28 28 27 26 25 25 24 25 25 24 24 23 22 22 22 23 23 24 24 22 20 19 18 17 16 14 13 13 13 13 13 13 14 14 14 15 15 15 14 14 14 13 13 13 13 12 12 11 11 12 12 13 14 14 15 16 16 16 16 17 17 17 17 18 18
25 25 26 27 28 27 26 25 24 23 23 23 23 23 22 22 22 22 23 23 23 23 22 20 18 17 16 15 14 13 13 13 13 13 14 14 14 15 15 15 16 16 16 15 15 14 13 13 12 11 10 10 10 11 11 12 13 14 15 16 16 16 17 17 17 18 18 18 19
24 25 26 27 27 26 25 24 23 22 22 22 23 22 22 22 22 22 23 23 22 22 21 19 18 16 15 14 14 13 13 13 13 13 14 14 14 15 16 16 17 17 17 18 17 16 15 13 12 11 10 10 10 11 12 13 14 15 16 16 16 16 17 17 18 18 19 20 20
23 24 25 26 26 25 24 23 22 22 21 21 21 21 22 22 22 22 22 22 22 21 20 19 18 17 16 15 14 13 13 13 13 13 14 14 15 16 17 17 18 18 18 18 18 17 16 14 12 11 10 10 10 11 13 15 16 18 18 18 18 17 17 17 18 19 20 21 22
23 24 25 25 25 25 24 23 22 21 21 20 20 21 21 22 22 22 22 22 21 21 21 20 19 18 17 16 15 14 14 14 14 14 15 15 16 17 18 18 18 18 17 17 17 17 16 14 12 11 10 10 11 12 15 17 19 20 21 21 20 19 18 18 18 19 20 21 21
23 24 24 24 25 24 23 22 22 21 20 20 19 20 20 21 21 21 21 21 21 21 21 20 20 19 18 17 16 16 16 16 15 15 16 16 17 18 19 19 18 17 16 16 16 15 15 14 12 11 11 11 12 13 16 18 20 22 22 22 22 21 20 19 19 19 19 20 20
23 24 24 24 24 23 23 22 21 20 20 19 19 19 19 20 20 21 21 21 20 20 20 20 20 20 19 19 18 18 17 17 17 16 16 16 17 18 19 18 17 16 15 15 15 15 14 13 12 12 11 11 12 14 16 18 20 21 22 22 22 22 21 20 19 19 19 20 20
23 23 23 23 23 22 22 21 21 21 20 20 20 19 19 19 20 20 21 21 20 20 19 19 19 19 19 19 19 18 18 17 17 16 15 15 16 17 17 17 16 15 14 15 15 15 14 13 12 12 11 12 13 14 16 17 18 19 20 21 21 21 21 20 20 19 19 19 20
22 22 22 22 22 21 21 21 21 21 21 21 21 20 20 20 20 20 21 21 21 20 19 18 18 18 18 19 19 19 18 17 15 14 14 14 15 16 16 15 14 13 14 15 15 15 15 14 12 11 11 12 13 14 15 16 17 18 19 20 20 20 20 20 20 19 19 19 19
21 21 21 21 21 21 21 21 21 22 22 22 22 22 21 20 20 21 21 21 21 20 19 18 18 18 18 18 18 18 17 16 14 13 13 13 14 15 15 14 13 13 14 16 16 15 15 14 12 11 11 12 13 14 14 15 15 16 17 18 18 19 18 18 18 18 18 18 18
20 20 20 20 20 20 20 21 21 22 23 23 23 23 22 21 21 22 22 22 22 20 19 18 18 18 18 18 17 17 16 15 14 13 12 13 14 14 14 13 13 14 16 16 16 16 15 14 12 11 11 12 13 13 14 14 14 15 16 16 16 16 16 16 16 16 16 17 17
19 19 19 19 19 19 20 20 21 22 22 23 23 23 23 22 22 22 22 23 22 21 19 19 18 18 18 18 17 16 16 15 14 14 14 14 15 14 14 14 14 15 16 16 16 15 15 14 12 11 12 12 13 14 14 14 14 14 14 14 14 14 14 13 13 14 14 15 15
18 19 18 18 18 19 19 20 20 21 22 22 23 23 23 23 23 23 23 23 22 22 20 20 19 19 18 18 18 17 17 17 16 16 16 16 16 15 15 15 15 15 16 16 15 14 14 13 12 11 12 13 14 14 14 14 14 13 13 13 12 12 11 11 11 12 12 13 14
18 18 17 17 17 18 18 19 19 20 21 21 22 22 23 23 23 23 23 23 23 23 22 22 21 20 20 19 19 18 18 18 17 17 17 17 18 18 17 16 16 16 16 15 14 13 13 12 11 12 13 14 14 14 14 14 13 13 13 12 11 10 10 9 10 10 11 12 12
17 16 16 16 16 17 17 18 19 19 20 20 21 22 22 23 23 23 24 24 24 24 24 23 23 22 22 21 19 18 18 17 17 17 18 18 19 19 18 18 17 16 16 15 14 13 12 12 12 13 14 14 14 14 14 13 13 13 12 11 10 9 8 9 9 10 10 11 12
15 15 15 15 16 16 17 17 18 19 19 20 21 21 22 22 23 23 24 24 24 24 24 23 23 23 22 21 19 18 17 17 17 17 17 18 18 18 18 17 17 17 16 15 14 13 13 13 14 14 15 15 14 13 13 12 13 12 11 10 8 8 7 8 9 9 10 11 12
15 14 14 14 15 16 16 17 18 19 19 20 20 21 22 23 23 24 24 24 24 24 23 23 22 22 21 19 18 17 17 18 17 17 16 16 16 16 16 16 16 16 16 15 15 14 14 14 15 15 15 14 13 12 12 12 12 12 10 8 7 7 7 8 9 10 11 12 13
14 14 14 14 15 15 16 17 18 18 19 20 21 21 22 23 23 24 24 24 23 23 23 23 22 21 19 18 17 17 18 18 17 16 15 15 15 15 15 15 15 15 15 15 14 14 14 15 15 15 14 13 12 11 11 12 11 10 9 8 7 7 8 9 10 11 12 13 15
13 13 13 14 14 15 15 16 17 18 19 20 20 21 22 22 23 23 23 23 23 23 23 22 21 19 18 16 16 16 16 16 15 15 14 14 14 14 14 14 14 13 13 13 13 13 14 14 14 14 13 12 11 11 11 11 10 10 9 9 9 9 10 11 12 13 14 15 16
12 13 13 14 14 14 14 15 15 16 17 19 20 21 21 22 22 23 23 22 22 22 21 20 19 17 16 15 14 13 13 13 13 13 14 14 14 14 13 13 12 12 12 12 12 13 13 13 13 12 11 11 10 10 10 10 11 11 11 11 11 12 13 14 15 15 16 17 18
12 12 13 14 14 13 13 13 14 15 16 17 19 20 20 21 21 22 22 22 21 21 20 18 17 16 15 13 12 11 11 11 11 12 13 14 14 13 12 11 11 11 11 11 12 12 13 13 11 9 8 9 9 9 10 11 12 13 13 14 15 15 16 17 17 17 18 19 20
11 12 12 12 12 12 12 12 13 14 15 17 18 19 20 20 20 21 21 21 21 20 18 16 15 15 14 13 11 10 10 10 11 12 13 14 14 13 11 10 10 11 11 12 13 13 13 12 9 7 6 8 8 10 11 13 14 15 16 16 17 18 18 19 19 19 20 21 22
10 11 11 10 11 11 12 13 14 14 15 16 17 18 19 19 20 20 21 21 21 20 18 16 15 15 14 14 12 12 11 12 12 13 14 14 14 12 11 10 10 11 12 13 13 13 13 11 9 8 7 8 9 11 12 14 15 16 17 18 19 19 20 20 21 21 22 23 23
9 10 10 10 11 12 13 14 14 15 15 16 17 18 19 19 20 20 21 21 21 19 17 16 15 15 15 15 15 14 14 14 14 14 14 14 13 11 10 11 11 12 13 13 13 13 12 10 10 9 9 9 10 12 14 15 16 17 18 19 20 20 21 22 23 23 23 24 24
Wind_Direction
3 2 2 2 2 1 1 360 359 358 357 356 355 354 353 352 351 349 349 350 350 349 349 349 349 345 341 338 335 333 331 329 329 329 328 325 323 321 319 317 315 314 313 313 314 319 324 322 320 318 317 316 310 307 307 310 311 311 310 311 312 312 311 308 303 298 292 285 278
3 2 1 0 360 359 359 358 357 356 355 354 354 353 353 353 352 352 352 354 355 355 354 354 352 349 345 342 340 338 336 335 336 336 335 334 332 331 329 328 327 327 327 327 330 334 336 336 338 338 338 336 329 321 317 317 315 312 309 306 303 301 301 300 300 297 292 284 277
3 2 1 1 0 360 359 358 356 355 353 353 352 352 352 352 351 351 353 355 356 356 356 356 354 350 347 345 343 342 341 341 342 343 344 345 346 347 347 345 344 343 342 344 344 343 344 349 354 354 349 343 337 330 324 319 314 310 306 302 298 294 292 292 295 300 302 297 288
3 3 2 2 1 1 360 358 355 354 353 352 351 350 350 349 349 349 351 354 356 358 358 357 354 351 348 347 346 345 346 347 349 353 358 1 2 0 358 357 356 356 356 354 347 346 348 350 351 350 346 340 333 326 320 316 312 307 303 299 295 290 285 284 287 293 302 311 321
3 3 3 2 0 359 357 356 354 353 352 351 349 349 348 347 347 348 351 355 360 0 358 354 352 350 348 347 349 352 354 355 1 8 12 13 12 8 4 0 359 358 355 349 344 344 345 345 344 343 340 335 330 326 322 320 315 308 302 297 294 290 285 282 280 282 288 300 312
4 2 1 0 358 357 355 354 353 352 351 349 348 348 347 346 346 348 352 357 358 356 353 350 349 349 349 351 355 1 8 13 18 20 19 17 13 8 3 358 354 350 346 342 343 344 343 343 342 341 338 337 336 335 334 331 327 321 313 303 296 290 286 281 278 279 283 287 291
4 2 1 359 357 356 355 354 352 351 350 349 348 347 347 347 348 350 352 352 353 352 351 350 353 355 358 1 7 14 21 24 25 22 18 13 8 3 359 355 351 347 346 345 346 346 347 348 349 348 349 351 350 345 339 334 336 337 334 328 320 311 305 304 303 300 294 288 285
2 1 360 358 357 356 355 354 353 353 352 351 350 350 350 351 351 351 350 351 353 354 355 357 2 6 10 13 19 24 27 25 20 15 9 4 0 357 356 354 353 353 353 353 353 354 355 356 357 358 358 358 355 349 341 334 334 341 351 356 356 355 355 358 2 2 358 349 339
1 0 359 358 357 356 355 355 355 355 355 355 356 357 357 357 357 356 355 356 356 358 2 9 14 17 20 22 23 24 22 17 10 3 359 356 354 353 353 353 354 355 355 356 356 358 359 0 1 1 0 359 359 357 355 351 349 353 2 10 12 13 14 16 19 21 23 24 26
2 1 0 360 358 357 356 355 357 359 1 3 4 5 4 3 3 3 3 2 1 3 8 14 17 21 24 23 20 16 12 6 360 355 352 352 352 352 353 354 354 354 354 354 355 356 357 360 1 1 1 2 4 6 7 8 10 14 18 20 19 19 19 20 22 24 26 27 28
4 3 2 2 360 358 358 359 2 4 6 9 10 9 8 8 10 10 10 9 8 10 13 15 18 19 19 17 12 6 1 357 353 351 350 351 352 354 355 356 356 356 355 354 355 355 357 0 2 3 4 4 6 8 11 13 15 19 21 22 21 20 20 20 20 21 22 23 25
5 3 2 2 1 1 3 5 8 9 10 12 12 11 10 11 11 11 11 11 12 13 14 15 17 16 13 9 3 358 354 351 349 348 349 351 353 356 358 359 359 359 358 357 357 357 359 2 4 4 4 5 7 8 9 10 11 13 15 16 16 17 17 16 16 17 18 19 21
6 5 4 4 5 7 8 10 11 11 10 11 9 7 6 6 5 4 5 6 7 8 7 7 8 8 7 3 358 353 349 347 345 346 348 352 356 359 1 3 4 4 3 2 2 2 3 5 5 5 5 5 6 7 7 7 8 9 10 10 11 11 11 11 11 11 13 14 15
7 8 9 10 11 12 12 13 13 11 8 7 4 1 359 356 355 354 354 355 356 356 355 355 356 357 357 356 352 348 345 343 343 345 349 355 0 5 8 10 12 11 10 9 8 7 8 8 9 10 10 9 9 9 10 10 10 10 9 8 7 6 6 5 6 7 8 9 10
11 12 14 15 15 15 15 15 13 9 6 3 359 356 353 350 348 347 347 347 347 348 348 349 350 351 351 350 348 345 343 342 345 350 355 1 8 13 17 19 20 20 18 17 15 14 14 15 15 16 16 16 16 16 16 17 16 15 12 9 6 4 3 3 3 3 4 5 6
15 17 18 18 17 16 15 14 11 8 3 360 356 353 351 349 347 346 346 346 346 348 349 351 352 352 351 349 348 346 345 346 351 359 6 12 17 21 24 26 26 26 25 23 22 21 21 21 21 22 23 23 22 22 21 20 19 17 13 10 6 3 1 0 360 359 360 2 2
19 20 20 19 17 16 14 11 9 5 2 359 356 354 352 350 349 349 350 351 352 353 354 355 355 354 352 350 350 350 351 353 1 10 16 19 21 23 25 26 27 27 27 26 25 24 23 24 24 25 26 26 26 24 21 18 16 13 10 6 3 0 358 357 356 356 356 357 358
21 20 19 17 16 13 11 8 5 2 0 359 357 356 354 354 353 353 354 355 356 356 356 356 356 355 355 354 354 356 359 2 9 15 19 19 19 18 18 18 17 17 18 18 19 19 19 20 21 22 24 25 25 23 20 16 12 10 7 4 1 359 357 356 356 356 357 358 358
20 18 16 14 12 9 7 4 1 359 358 357 357 356 355 355 355 355 355 356 356 357 357 356 356 357 358 359 360 2 5 9 12 14 15 14 11 8 6 4 3 2 3 4 5 6 7 9 11 13 16 18 20 20 17 14 11 9 7 5 3 1 359 358 357 358 360 1 1
18 15 12 10 8 6 3 360 358 356 356 355 354 353 354 354 354 354 354 355 355 356 357 357 357 358 360 1 3 6 9 11 11 9 7 4 1 358 356 354 353 352 352 352 353 353 353 355 358 1 6 10 14 15 13 11 9 8 7 6 5 3 1 360 359 360 1 2 3
15 12 8 5 5 3 360 357 356 354 353 352 352 351 352 353 353 354 353 353 354 355 357 359 0 0 1 1 3 5 7 7 5 2 359 357 355 354 353 352 351 350 350 349 347 345 343 343 344 349 355 2 7 8 8 7 6 5 5 5 5 5 4 4 3 3 3 4 4
12 8 4 2 2 0 357 355 353 352 351 351 351 351 352 352 353 353 352 352 353 354 357 359 1 1 1 1 0 360 360 359 357 356 354 354 354 355 355 355 353 353 352 351 348 344 340 336 334 337 345 353 359 1 2 3 3 3 4 4 5 6 7 7 7 7 7 7 6
8 4 2 1 1 359 356 354 354 353 353 352 352 353 353 354 353 353 352 352 353 353 354 356 357 358 358 357 356 354 352 351 350 351 352 354 356 357 358 356 355 354 355 354 352 349 343 335 329 330 337 346 352 355 358 359 1 2 4 4 5 5 6 8 9 10 10 9 9
5 2 1 0 1 360 358 357 357 358 357 356 355 356 356 356 355 355 354 353 352 351 351 351 352 352 353 353 352 350 348 346 345 347 350 354 358 359 357 354 352 352 354 356 357 355 350 341 331 328 332 340 346 350 353 356 360 3 5 6 6 5 5 6 7 9 9 10 10
3 1 0 1 2 1 0 1 2 2 1 360 358 358 358 358 357 356 355 353 351 349 347 347 347 349 350 351 351 349 347 345 344 346 349 353 356 356 353 349 349 351 354 358 359 360 357 350 341 334 332 336 340 344 349 353 359 4 7 8 7 5 3 2 3 4 6 8 9
2 1 1 2 3 3 3 5 5 4 2 1 359 358 358 358 357 356 355 354 352 350 348 347 348 350 351 352 351 350 348 347 347 347 349 350 351 350 347 346 348 353 356 357 358 359 359 357 350 342 337 336 338 341 345 351 357 3 7 8 8 6 3 1 359 359 0 2 4
2 2 3 3 5 5 6 5 4 3 2 0 359 358 358 357 357 356 356 356 355 354 353 353 355 356 356 356 354 352 350 349 349 349 348 347 346 344 344 347 352 354 354 353 353 354 355 357 354 348 342 338 338 340 344 349 355 0 4 6 6 5 3 0 357 355 355 355 357
2 2 3 4 7 7 6 5 3 2 0 360 359 358 358 357 357 356 355 355 356 357 358 359 0 0 360 358 355 352 349 348 347 346 345 344 343 343 345 349 352 352 351 349 347 347 350 353 352 349 343 339 339 341 343 347 352 356 0 2 3 3 1 358 355 352 351 350 350
1 2 3 6 8 8 6 4 2 1 360 359 358 358 358 358 357 355 353 352 353 354 355 356 356 357 356 355 353 349 346 343 341 341 341 341 343 345 347 349 350 350 348 345 343 343 345 348 349 345 341 340 340 341 342 345 348 352 355 357 358 358 357 354 351 349 347 346 346
359 1 3 7 9 8 6 4 3 1 0 360 359 358 358 357 356 354 351 348 347 347 347 347 347 347 347 347 346 344 342 340 340 340 340 342 344 346 348 348 348 346 344 341 339 339 341 343 342 340 338 338 338 338 339 340 343 346 349 351 353 354 352 349 347 345 344 344 343
357 360 3 7 8 7 5 4 3 2 1 0 359 358 357 356 354 352 349 346 343 342 341 340 339 338 339 340 340 340 341 342 343 344 345 347 348 348 348 347 345 343 339 337 335 335 336 336 335 335 335 335 335 334 334 335 336 339 342 346 348 349 348 347 345 344 344 344 345
355 359 3 5 5 4 3 2 2 1 0 359 358 356 355 353 351 350 348 345 343 340 339 337 336 335 335 336 338 340 343 345 347 348 348 348 348 347 346 345 343 340 337 335 333 332 332 331 330 331 333 333 332 331 330 330 331 334 338 343 347 349 348 347 346 346 346 347 347
353 358 1 2 0 359 359 359 358 357 356 355 354 353 351 349 348 347 346 345 343 340 338 336 335 334 334 334 336 339 342 343 342 343 343 343 343 343 343 343 342 340 338 336 334 332 330 330 331 333 333 332 331 330 329 328 329 332 337 343 348 349 349 349 348 348 348 348 348
351 355 357 356 354 353 353 353 353 352 351 350 349 349 347 346 344 343 343 343 341 339 338 337 336 336 336 336 336 338 338 338 338 338 339 340 341 342 343 344 343 342 341 340 338 336 335 335 336 337 336 334 332 331 329 328 329 332 337 342 343 345 346 347 347 347 347 347 347
349 351 351 349 348 347 347 348 349 348 347 346 345 345 344 343 342 341 341 340 340 338 337 337 338 339 340 340 340 339 339 340 340 342 343 344 345 347 348 349 348 347 346 346 345 344 343 343 342 340 337 334 332 332 331 330 331 332 334 334 335 338 340 342 343 343 343 344 345
346 347 344 341 340 340 342 344 346 346 345 344 343 342 342 342 341 341 341 341 339 338 338 339 340 343 345 346 346 345 345 346 348 349 350 351 351 352 354 354 353 352 352 353 353 352 350 348 345 341 335 332 332 334 334 333 332 330 328 328 330 333 336 337 337 337 337 339 341
343 342 338 335 334 335 338 341 344 344 344 343 341 340 340 340 340 341 342 342 341 340 340 342 345 348 351 353 353 353 352 352 353 354 354 354 355 355 356 356 355 354 354 356 356 355 353 352 347 339 330 327 330 333 333 332 329 327 325 326 328 330 332 332 331 331 332 334 336
339 337 334 331 331 333 338 341 343 343 342 341 340 339 339 339 339 341 342 343 342 342 343 346 350 353 355 355 355 356 355 354 354 354 353 353 353 355 356 357 357 356 355 354 353 352 353 354 352 340 323 319 325 328 328 326 325 325 325 325 325 326 326 327 327 327 329 330 333
335 334 333 332 333 336 339 341 342 341 341 340 339 339 339 339 338 339 341 342 343 344 345 349 352 353 352 352 353 354 353 352 352 352 352 351 350 351 355 358 357 355 353 351 350 351 354 358 358 342 318 315 323 326 325 324 324 323 324 324 325 324 324 324 325 326 327 328 330
332 333 334 335 338 340 342 342 341 341 340 339 338 338 338 338 337 337 338 339 340 342 344 346 347 347 347 348 350 351 351 350 351 351 351 349 347 349 352 356 356 355 354 354 355 357 359 1 356 340 324 323 327 329 328 327 326 326 326 327 327 327 325 324 325 326 327 328 329
327 331 336 340 342 343 343 343 342 342 341 339 339 339 338 337 336 335 335 335 336 337 339 340 341 342 343 345 346 346 346 347 348 349 349 349 350 352 355 356 356 355 357 359 1 4 6 5 357 347 338 334 335 335 334 333 332 332 332 331 330 329 328 327 326 327 327 328 328